[[{"header":{"parameterUnit":"m.s-1","parameterCategory":1,"la1":30.2991,"la2":30.254,"lo1":-89.0895,"lo2":-89.0444,"dy":0.0017,"dx":0.0017,"nx":28,"ny":28,"refTime":"2024-06-14T03:00:00:Z","depth":0,"parameterNumber":2,"parameterNumberName":"U-component_of_WINDS"},"data":[0,0,0,0,0,0,0,0,0,0,0,0,0,0,0,0,0,0,0,0,0,0,0,0,0,0,0,0,0,0,0,0,0,0,0,0,0,0,0,0,0,0,0,0,0,0,0,0,0,0,0,0,0,0,0,0,0,0,-1.5686,-1.5686,0,-1.5685,-1.5685,-1.5685,-1.5644,-1.5642,-1.5641,-1.564,-1.5641,-1.5642,-1.5643,0,0,0,0,0,0,0,0,0,0,0,0,0,-1.5654,-1.5655,-1.5686,-1.5686,-1.5686,-1.5685,-1.5685,-1.5685,-1.5644,-1.5642,-1.5641,-1.564,-1.5641,-1.5642,-1.5643,0,0,0,0,0,0,0,0,0,0,0,0,0,-1.5662,-1.5655,-1.5686,-1.5665,-1.5663,-1.5685,-1.5685,-1.5685,-1.5644,-1.5642,-1.5641,-1.5639,-1.564,-1.5642,-1.5643,-1.5685,0,0,-1.5648,-1.5649,0,0,0,0,0,0,0,0,-1.5662,-1.5664,-1.5668,-1.5667,-1.5665,-1.5663,-1.5674,-1.5685,-1.5644,-1.5651,-1.564,-1.5638,-1.565,-1.565,-1.5654,-1.5686,-1.5686,-1.5648,-1.5649,-1.565,-1.565,0,0,0,0,0,0,0,-1.5661,-1.5663,-1.5686,-1.5669,-1.5666,-1.5657,-1.5656,-1.5676,-1.566,-1.5651,-1.5648,-1.5648,-1.5648,-1.5652,-1.5653,-1.5686,-1.5648,-1.5649,-1.565,-1.5651,-1.5753,-1.5755,0,0,0,0,0,0,-1.5663,-1.5663,-1.5686,-1.5686,-1.5659,-1.5659,-1.5658,-1.5665,-1.5659,-1.5657,-1.5649,-1.5646,-1.5651,-1.5652,-1.5653,-1.5703,-1.565,-1.5651,-1.5652,-1.5752,-1.5754,-1.5756,0,0,0,0,0,0,-1.5663,-1.5666,-1.5686,-1.5674,-1.5675,-1.5661,-1.5669,-1.5666,-1.567,-1.5658,-1.5656,-1.5656,-1.5649,-1.5651,-1.5678,-1.5703,-1.5652,-1.5653,-1.575,-1.5752,-1.5755,-1.5804,0,0,0,0,0,0,-1.5662,-1.5666,-1.5681,-1.5674,-1.5676,-1.571,-1.5671,-1.5667,-1.5673,-1.5668,-1.5664,-1.5662,-1.5648,-1.5676,-1.568,-1.5704,-1.5654,-1.5747,-1.5751,-1.5754,-1.58,-1.5808,-1.5814,0,0,0,0,0,-1.5661,-1.5695,-1.5682,-1.5685,-1.5695,-1.5712,-1.5713,-1.5696,-1.5675,-1.569,-1.5683,-1.5662,-1.5699,-1.5679,-1.5683,-1.5708,-1.5746,-1.575,-1.5754,-1.5796,-1.5806,-1.5814,0,0,0,0,0,0,-1.5706,-1.5694,-1.5679,-1.5712,-1.5713,-1.5705,-1.5724,-1.5706,-1.5714,-1.571,-1.5688,-1.5688,-1.5719,-1.5716,-1.5693,-1.5749,-1.5719,-1.5724,-1.575,-1.5759,-1.5766,-1.5767,-1.5656,0,0,0,0,0,-1.5719,-1.5733,-1.5722,-1.5752,-1.5753,-1.5739,-1.5745,-1.5732,-1.5732,-1.5733,-1.5727,-1.5729,-1.5742,-1.575,-1.5761,-1.5799,-1.5798,-1.5818,-1.5826,-1.5832,-1.5837,-1.5858,-1.5867,-1.5769,-1.5769,-1.5769,0,0,-1.5747,-1.5742,-1.5752,-1.5761,-1.576,-1.5776,-1.5739,-1.5757,-1.5769,-1.5736,-1.5761,-1.5757,-1.5758,-1.5791,-1.5806,-1.579,-1.5864,-1.5837,-1.5842,-1.5843,-1.5863,-1.5872,-1.5881,-1.5772,-1.5771,-1.5771,0,0,-1.5807,-1.5804,-1.5829,-1.5829,-1.5829,-1.5819,-1.5825,-1.5819,-1.5816,-1.5841,-1.5817,-1.583,-1.5852,-1.5854,-1.5857,-1.5919,-1.59,-1.5923,-1.5961,-1.5983,-1.599,-1.5997,-1.602,-1.6028,-1.5928,-1.5928,-1.5928,0,-1.5842,-1.5864,-1.5844,-1.5864,-1.5869,-1.5839,-1.5865,-1.5867,-1.587,-1.5874,-1.5857,-1.5883,-1.5882,-1.5916,-1.5931,-1.5934,-1.5942,-1.5923,-1.5991,-1.5997,-1.6003,-1.6025,-1.6034,-1.593,-1.593,-1.593,-1.593,0,-1.5908,-1.5924,-1.5944,-1.5948,-1.5955,-1.5978,-1.5962,-1.5972,-1.5958,-1.5951,-1.5977,-1.5975,-1.5985,-1.5991,-1.5978,-1.6024,-1.6014,-1.5994,-1.5963,-1.6016,-1.6036,-1.6044,-1.5935,-1.5934,-1.5933,-1.5932,0,0,-1.5995,-1.5988,-1.5996,-1.5998,-1.5996,-1.6008,-1.603,-1.6039,-1.6048,-1.6052,-1.6071,-1.609,-1.6071,-1.6076,-1.6062,-1.6081,-1.6131,-1.6058,-1.6058,-1.6073,-1.6183,-1.6199,-1.6209,-1.6119,-1.612,-1.6121,-1.6183,0,-1.6054,-1.609,-1.6074,-1.6112,-1.6127,-1.61,-1.6119,-1.612,-1.6114,-1.6127,-1.612,-1.6134,-1.6108,-1.6111,-1.6128,-1.6122,-1.6153,-1.6117,-1.6137,-1.6138,-1.6138,-1.6219,-1.6236,-1.6294,-1.6191,-1.6192,-1.6193,0,-1.6127,-1.6133,-1.6173,-1.6169,-1.6175,-1.6192,-1.62,-1.6212,-1.6213,-1.6208,-1.6213,-1.6196,-1.6219,-1.6187,-1.6219,-1.6194,-1.6202,-1.62,-1.6202,-1.6204,-1.6169,-1.6224,-1.6312,-1.6322,-1.6205,-1.6204,-1.6203,0,-1.6188,-1.6207,-1.6233,-1.6235,-1.6231,-1.6244,-1.6243,-1.6243,-1.625,-1.6257,-1.6262,-1.6272,-1.6277,-1.6286,-1.6272,-1.6251,-1.6306,-1.6273,-1.6303,-1.6303,-1.6316,-1.6316,-1.6408,-1.632,-1.6319,-1.6319,-1.6319,0,-1.6255,-1.6281,-1.6261,-1.6277,-1.6306,-1.6287,-1.6316,-1.6312,-1.6312,-1.6328,-1.6305,-1.6321,-1.6302,-1.6316,-1.6306,-1.6334,-1.6336,-1.6333,-1.633,-1.6336,-1.6337,-1.6341,-1.6337,-1.6322,-1.6321,-1.6321,-1.632,0,-1.6329,-1.6316,-1.6344,-1.6337,-1.6336,-1.6358,-1.6353,-1.6368,-1.636,-1.6381,-1.6385,-1.6373,-1.6389,-1.6376,-1.6391,-1.6385,-1.6422,-1.6413,-1.6422,-1.642,-1.645,-1.6448,-1.6549,-1.6562,-1.6465,-1.6466,-1.6466,0,-1.6374,-1.6393,-1.6389,-1.6397,-1.6398,-1.6412,-1.6419,-1.6402,-1.641,-1.6414,-1.6429,-1.6443,-1.6453,-1.648,-1.6473,-1.6485,-1.6476,-1.6511,-1.6478,-1.6483,-1.6478,-1.6478,-1.648,-1.6518,-1.6519,-1.652,-1.6521,0,-1.6454,-1.6447,-1.6458,-1.6467,-1.6476,-1.6483,-1.6487,-1.6496,-1.6478,-1.6489,-1.6505,-1.6513,-1.6528,-1.6543,-1.6552,-1.6552,-1.6534,-1.6531,-1.6539,-1.6545,-1.655,-1.6549,-1.6441,-1.6529,-1.6528,-1.6528,-1.6527,-1.6527,-1.6516,-1.6532,-1.6532,-1.6545,-1.6547,-1.6552,-1.6566,-1.656,-1.6573,-1.6584,-1.6573,-1.6592,-1.6594,-1.6605,-1.6607,-1.6622,-1.6608,-1.6619,-1.6622,-1.6625,-1.663,-1.6547,-1.6624,-1.6624,-1.6624,-1.6623,-1.6623,0,-1.6597,-1.6595,-1.6607,-1.6614,-1.6625,-1.6606,-1.6611,-1.6621,-1.6638,-1.6641,-1.6652,-1.667,-1.6684,-1.6679,-1.6691,-1.6705,-1.6697,-1.6709,-1.6708,-1.6709,-1.6642,-1.6634,-1.6715,-1.6715,-1.6715,-1.6715,-1.6715,-1.6715,-1.664,-1.6667,-1.666,-1.6688,-1.6686,-1.6704,-1.6709,-1.6714,-1.6716,-1.6738,-1.6749,-1.6745,-1.6745,-1.6757,-1.677,-1.6768,-1.6774,-1.6789,-1.6785,-1.6722,-1.6713,-1.6705,-1.6698,-1.679,-1.679,-1.685,-1.6851,-1.6851]},{"header":{"parameterUnit":"m.s-1","parameterCategory":1,"la1":30.2991,"la2":30.254,"lo1":-89.0895,"lo2":-89.0444,"dy":0.0017,"dx":0.0017,"nx":28,"ny":28,"refTime":"2024-06-14T03:00:00:Z","depth":0,"parameterNumber":3,"parameterNumberName":"V-component_of_WINDS"},"data":[0,0,0,0,0,0,0,0,0,0,0,0,0,0,0,0,0,0,0,0,0,0,0,0,0,0,0,0,0,0,0,0,0,0,0,0,0,0,0,0,0,0,0,0,0,0,0,0,0,0,0,0,0,0,0,0,0,0,3.8151,3.8151,0,3.8172,3.8172,3.8172,3.8154,3.8154,3.8153,3.8152,3.8171,3.8172,3.8173,0,0,0,0,0,0,0,0,0,0,0,0,0,3.8094,3.8095,3.8151,3.8151,3.8151,3.8172,3.8172,3.8172,3.8155,3.8154,3.8153,3.8152,3.817,3.8172,3.8173,0,0,0,0,0,0,0,0,0,0,0,0,0,3.8117,3.8096,3.8151,3.8145,3.8145,3.8172,3.8172,3.8172,3.8155,3.8154,3.8153,3.8152,3.817,3.8172,3.8173,3.8206,0,0,3.8179,3.818,0,0,0,0,0,0,0,0,3.8116,3.8119,3.8146,3.8146,3.8145,3.8159,3.8159,3.8184,3.8155,3.8151,3.8152,3.8151,3.8168,3.817,3.8176,3.8207,3.8208,3.8179,3.818,3.8181,3.8181,0,0,0,0,0,0,0,3.8114,3.8118,3.8159,3.8146,3.8146,3.8141,3.8143,3.8163,3.8165,3.8151,3.815,3.8153,3.8167,3.8174,3.8176,3.8208,3.8179,3.818,3.8181,3.8182,3.8267,3.8269,0,0,0,0,0,0,3.8114,3.8117,3.8158,3.816,3.8128,3.8143,3.8145,3.8156,3.8165,3.8165,3.8154,3.8152,3.8172,3.8174,3.8177,3.8216,3.8181,3.8182,3.8183,3.8266,3.8268,3.8269,0,0,0,0,0,0,3.8112,3.8117,3.8158,3.8138,3.8143,3.8145,3.8157,3.8157,3.8164,3.8167,3.8167,3.816,3.8171,3.8174,3.8199,3.8216,3.8183,3.8185,3.8265,3.8267,3.8268,3.8294,0,0,0,0,0,0,3.8111,3.8117,3.813,3.8139,3.8144,3.818,3.8158,3.8158,3.8167,3.8165,3.8173,3.8173,3.817,3.8197,3.8201,3.8218,3.8186,3.8263,3.8266,3.8268,3.8291,3.8296,3.83,0,0,0,0,0,3.8109,3.8135,3.8131,3.8136,3.816,3.8181,3.8184,3.8181,3.8169,3.8181,3.8183,3.8173,3.8214,3.8199,3.8204,3.8222,3.8262,3.8265,3.8268,3.8289,3.8295,3.83,0,0,0,0,0,0,3.8127,3.8136,3.8131,3.8161,3.8171,3.8178,3.8194,3.8187,3.82,3.8197,3.8192,3.8194,3.822,3.8223,3.8207,3.8254,3.8236,3.824,3.8251,3.8256,3.8261,3.8259,3.8188,0,0,0,0,0,3.8135,3.8152,3.8159,3.8185,3.819,3.8192,3.8201,3.8198,3.8207,3.821,3.8214,3.8223,3.8238,3.8247,3.8261,3.8292,3.8293,3.8307,3.8311,3.8315,3.8318,3.8334,3.834,3.8278,3.8278,3.8278,0,0,3.8151,3.8158,3.8169,3.8189,3.8196,3.8213,3.8195,3.8214,3.8226,3.8213,3.8237,3.824,3.825,3.8278,3.8291,3.8281,3.8335,3.8318,3.8321,3.8322,3.8338,3.8344,3.8349,3.828,3.8279,3.8279,0,0,3.8188,3.8196,3.8218,3.8226,3.8238,3.8239,3.8244,3.8253,3.8255,3.828,3.827,3.8285,3.831,3.8317,3.8324,3.8366,3.8357,3.8371,3.8394,3.841,3.8415,3.8419,3.8434,3.844,3.8374,3.8374,3.8374,0,3.8206,3.8233,3.8231,3.8251,3.826,3.825,3.8273,3.828,3.8295,3.8301,3.8291,3.8324,3.8329,3.8359,3.837,3.8376,3.8382,3.8369,3.8415,3.8419,3.8423,3.8437,3.8443,3.8376,3.8376,3.8375,3.8375,0,3.8254,3.8273,3.829,3.8306,3.8317,3.8338,3.8339,3.835,3.8347,3.8349,3.8374,3.838,3.8395,3.8402,3.8398,3.8432,3.8426,3.8416,3.8397,3.8431,3.8444,3.8449,3.8378,3.8377,3.8377,3.8377,0,0,3.8302,3.8318,3.8324,3.8332,3.8344,3.8358,3.8379,3.8395,3.8405,3.8416,3.8433,3.8456,3.8447,3.8455,3.8452,3.8466,3.8499,3.8454,3.8454,3.8462,3.8536,3.8544,3.855,3.8494,3.8495,3.8496,3.8535,0,3.8339,3.8377,3.8377,3.8411,3.8428,3.842,3.8438,3.8448,3.845,3.8465,3.8467,3.8484,3.847,3.8475,3.849,3.8492,3.8514,3.8489,3.8509,3.851,3.8506,3.8557,3.8564,3.8601,3.8541,3.8541,3.8542,0,3.8388,3.8402,3.8439,3.845,3.8457,3.8474,3.8489,3.8503,3.8514,3.8515,3.8525,3.852,3.8541,3.8523,3.8551,3.8535,3.8543,3.8545,3.8547,3.8548,3.8527,3.8558,3.8613,3.8618,3.855,3.8549,3.8549,0,3.8419,3.8447,3.8473,3.848,3.8493,3.8505,3.8511,3.8521,3.8531,3.8544,3.855,3.8565,3.8573,3.8585,3.8584,3.8571,3.8613,3.8595,3.8613,3.8613,3.8621,3.8621,3.8678,3.8628,3.8628,3.8628,3.8628,0,3.846,3.8483,3.8487,3.8503,3.8528,3.8527,3.8552,3.8557,3.8566,3.8582,3.8575,3.859,3.8589,3.8604,3.8603,3.8627,3.8631,3.8632,3.8631,3.8632,3.8632,3.8636,3.8633,3.863,3.8629,3.8629,3.8629,0,3.8498,3.8502,3.8529,3.8541,3.8544,3.8562,3.8572,3.8586,3.8589,3.861,3.8615,3.8619,3.8636,3.8637,3.8657,3.8657,3.8685,3.8682,3.8682,3.8681,3.8699,3.8698,3.876,3.8768,3.8715,3.8715,3.8716,0,3.8524,3.8542,3.8556,3.8567,3.8574,3.8591,3.8602,3.8602,3.8614,3.8628,3.8641,3.8658,3.8672,3.87,3.8704,3.872,3.8716,3.8738,3.8718,3.8719,3.8716,3.8715,3.8716,3.8741,3.8741,3.8742,3.8742,0,3.8569,3.8571,3.8587,3.8604,3.8618,3.8631,3.8643,3.8652,3.8654,3.8667,3.8686,3.8696,3.8718,3.8735,3.875,3.8755,3.8749,3.8749,3.8754,3.8754,3.8753,3.8753,3.8691,3.8747,3.8746,3.8746,3.8746,3.8745,3.8602,3.8617,3.863,3.8648,3.8658,3.867,3.8685,3.869,3.8706,3.8724,3.8723,3.8744,3.8755,3.8775,3.8782,3.8797,3.879,3.8797,3.8799,3.88,3.8802,3.8751,3.88,3.88,3.88,3.88,3.8799,0,3.8646,3.8654,3.8672,3.869,3.8705,3.8699,3.8713,3.8725,3.8744,3.8755,3.8769,3.8791,3.8808,3.8814,3.883,3.8842,3.8839,3.8846,3.8844,3.8846,3.8808,3.8802,3.8848,3.8848,3.8848,3.8848,3.8848,3.8848,3.8671,3.8697,3.87,3.8731,3.8739,3.876,3.8768,3.8779,3.8788,3.8813,3.8828,3.8832,3.8841,3.8859,3.8874,3.8875,3.8881,3.8889,3.8889,3.8853,3.8848,3.8844,3.8838,3.889,3.8891,3.8925,3.8926,3.8926]}]]